When you browse on this site, cookies collect data to enhance your experience and personalize the content and advertising you see.
Visit our Privacy Policy to learn more. By continuing to use the site, you agree to this use of cookies and data.
  • In Italy
  • List of Countries
  • For 7 days
  • Water Temperature
  • Satellite Maps
  • Weather Map
  • Weather Widgets
  • user-avatar
    Login

    Hourly Weather La Rioja

    Today, 15 December, Saturday

    Time Temperature Precipitation Wind Pressure Humidity
    00:00 +27°C° 0 mm 4 mps 716 mmHg 54%
    01:00 +27°C° 0 mm 3 mps 716 mmHg 57%
    02:00 +26°C° 0 mm 3 mps 716 mmHg 60%
    03:00 +25°C° 0 mm 3 mps 716 mmHg 62%
    04:00 +25°C° 0 mm 3 mps 716 mmHg 64%
    05:00 +24°C° 0 mm 2 mps 716 mmHg 67%
    06:00 +25°C° 0 mm 3 mps 716 mmHg 64%
    07:00 +25°C° 0 mm 3 mps 716 mmHg 61%
    08:00 +26°C° 0 mm 3 mps 717 mmHg 55%
    09:00 +27°C° 0 mm 4 mps 717 mmHg 49%
    10:00 +28°C° 0 mm 4 mps 716 mmHg 44%
    11:00 +30°C° 0 mm 5 mps 716 mmHg 38%
    12:00 +32°C° 0 mm 5 mps 715 mmHg 35%
    13:00 +33°C° 0 mm 6 mps 714 mmHg 32%
    14:00 +34°C° 0 mm 6 mps 713 mmHg 29%
    15:00 +34°C° 0 mm 6 mps 713 mmHg 30%
    16:00 +34°C° 0 mm 6 mps 712 mmHg 30%
    17:00 +34°C° 0 mm 6 mps 712 mmHg 31%
    18:00 +33°C° 0 mm 5 mps 712 mmHg 35%
    19:00 +32°C° 0 mm 4 mps 713 mmHg 39%
    20:00 +30°C° 0 mm 4 mps 713 mmHg 43%
    21:00 +29°C° 0 mm 3 mps 714 mmHg 47%
    22:00 +29°C° 0 mm 2 mps 714 mmHg 50%
    23:00 +28°C° 0 mm 2 mps 715 mmHg 53%

    Tomorrow, 16 December, Sunday

    Time Temperature Precipitation Wind Pressure Humidity
    00:00 +28°C° 0 mm 2 mps 715 mmHg 56%
    01:00 +27°C° 0 mm 2 mps 714 mmHg 59%
    02:00 +26°C° 0 mm 2 mps 714 mmHg 62%
    03:00 +26°C° 0 mm 2 mps 714 mmHg 65%
    04:00 +26°C° 0 mm 2 mps 714 mmHg 68%
    05:00 +25°C° 0 mm 2 mps 713 mmHg 72%
    06:00 +26°C° 0 mm 2 mps 714 mmHg 69%
    07:00 +27°C° 0 mm 1 mps 714 mmHg 66%
    08:00 +27°C° 0 mm 1 mps 714 mmHg 63%
    09:00 +29°C° 0 mm 2 mps 714 mmHg 56%
    10:00 +31°C° 0 mm 2 mps 713 mmHg 49%
    11:00 +32°C° 0 mm 2 mps 713 mmHg 42%
    12:00 +35°C° 0 mm 3 mps 712 mmHg 39%
    13:00 +36°C° 0 mm 3 mps 711 mmHg 35%
    14:00 +37°C° 0 mm 3 mps 711 mmHg 32%
    15:00 +37°C° 0 mm 3 mps 710 mmHg 31%
    16:00 +38°C° 0 mm 3 mps 710 mmHg 30%
    17:00 +38°C° 0 mm 3 mps 709 mmHg 29%
    18:00 +37°C° 0.1 mm 3 mps 710 mmHg 33%
    19:00 +36°C° 0.1 mm 3 mps 710 mmHg 36%
    20:00 +35°C° 0.1 mm 3 mps 711 mmHg 39%
    21:00 +34°C° 0.1 mm 3 mps 711 mmHg 44%
    22:00 +32°C° 0.1 mm 2 mps 712 mmHg 48%
    23:00 +31°C° 0.1 mm 2 mps 712 mmHg 52%

    Day after tomorrow, 17 December, Monday

    Time Temperature Precipitation Wind Pressure Humidity
    00:00 +31°C° 0.1 mm 2 mps 712 mmHg 53%
    01:00 +30°C° 0.1 mm 2 mps 711 mmHg 54%
    02:00 +30°C° 0.1 mm 1 mps 711 mmHg 55%
    03:00 +30°C° 0.1 mm 1 mps 711 mmHg 55%
    04:00 +29°C° 0.1 mm 1 mps 711 mmHg 55%
    05:00 +29°C° 0.1 mm 1 mps 710 mmHg 55%
    06:00 +30°C° 0 mm 2 mps 711 mmHg 50%
    07:00 +31°C° 0 mm 2 mps 712 mmHg 45%
    08:00 +32°C° 0 mm 2 mps 712 mmHg 40%
    09:00 +35°C° 0 mm 3 mps 712 mmHg 37%
    10:00 +36°C° 0 mm 4 mps 712 mmHg 34%
    11:00 +37°C° 0 mm 5 mps 713 mmHg 31%
    12:00 +39°C° 0.5 mm 5 mps 712 mmHg 32%
    13:00 +39°C° 0.5 mm 6 mps 711 mmHg 32%
    14:00 +39°C° 0.5 mm 6 mps 711 mmHg 33%
    15:00 +39°C° 1.1 mm 5 mps 711 mmHg 32%
    16:00 +39°C° 1.1 mm 5 mps 710 mmHg 31%
    17:00 +39°C° 1.1 mm 5 mps 710 mmHg 30%
    18:00 +36°C° 1.3 mm 6 mps 711 mmHg 32%
    19:00 +35°C° 1.3 mm 6 mps 711 mmHg 35%
    20:00 +34°C° 1.3 mm 7 mps 712 mmHg 37%
    21:00 +33°C° 0.9 mm 7 mps 713 mmHg 41%
    22:00 +30°C° 0.9 mm 6 mps 714 mmHg 44%
    23:00 +29°C° 0.9 mm 6 mps 715 mmHg 47%

    18 December, Tuesday

    Time Temperature Precipitation Wind Pressure Humidity
    00:00 +28°C° 0.2 mm 6 mps 715 mmHg 51%
    01:00 +28°C° 0.2 mm 6 mps 715 mmHg 54%
    02:00 +27°C° 0.2 mm 6 mps 715 mmHg 57%
    03:00 +26°C° 0 mm 5 mps 715 mmHg 59%
    04:00 +25°C° 0 mm 5 mps 716 mmHg 61%
    05:00 +25°C° 0 mm 4 mps 716 mmHg 62%
    06:00 +26°C° 0 mm 4 mps 717 mmHg 60%
    07:00 +26°C° 0 mm 4 mps 717 mmHg 57%
    08:00 +27°C° 0 mm 4 mps 718 mmHg 54%
    09:00 +28°C° 0.2 mm 4 mps 718 mmHg 52%
    10:00 +29°C° 0.2 mm 3 mps 717 mmHg 49%
    11:00 +30°C° 0.2 mm 3 mps 717 mmHg 46%
    12:00 +30°C° 0.3 mm 4 mps 717 mmHg 46%
    13:00 +30°C° 0.3 mm 4 mps 716 mmHg 45%
    14:00 +32°C° 0.3 mm 4 mps 716 mmHg 45%
    15:00 +30°C° 0.3 mm 4 mps 715 mmHg 47%
    16:00 +30°C° 0.3 mm 4 mps 715 mmHg 48%
    17:00 +30°C° 0.3 mm 3 mps 715 mmHg 50%
    18:00 +29°C° 0.8 mm 3 mps 715 mmHg 52%
    19:00 +29°C° 0.8 mm 2 mps 715 mmHg 55%
    20:00 +28°C° 0.8 mm 2 mps 715 mmHg 58%
    21:00 +28°C° 0.9 mm 2 mps 715 mmHg 59%
    22:00 +27°C° 0.9 mm 2 mps 715 mmHg 60%
    23:00 +27°C° 0.9 mm 2 mps 715 mmHg 62%

    19 December, Wednesday

    Time Temperature Precipitation Wind Pressure Humidity
    00:00 +27°C° 0.1 mm 2 mps 715 mmHg 63%
    01:00 +26°C° 0.1 mm 2 mps 714 mmHg 64%
    02:00 +26°C° 0.1 mm 2 mps 713 mmHg 65%
    03:00 +25°C° 0 mm 2 mps 713 mmHg 68%
    04:00 +25°C° 0 mm 2 mps 712 mmHg 72%
    05:00 +24°C° 0 mm 2 mps 712 mmHg 75%
    06:00 +25°C° 0.5 mm 2 mps 712 mmHg 72%
    07:00 +25°C° 0.5 mm 2 mps 713 mmHg 70%
    08:00 +26°C° 0.5 mm 2 mps 713 mmHg 67%
    09:00 +27°C° 0.6 mm 2 mps 712 mmHg 61%
    10:00 +29°C° 0.6 mm 2 mps 712 mmHg 56%
    11:00 +30°C° 0.6 mm 3 mps 712 mmHg 50%
    12:00 +31°C° 0.8 mm 3 mps 711 mmHg 45%
    13:00 +34°C° 0.8 mm 3 mps 710 mmHg 41%
    14:00 +35°C° 0.8 mm 4 mps 709 mmHg 36%
    15:00 +35°C° 0.4 mm 4 mps 709 mmHg 34%
    16:00 +35°C° 0.4 mm 4 mps 708 mmHg 32%
    17:00 +36°C° 0.4 mm 4 mps 708 mmHg 30%
    18:00 +35°C° 0 mm 4 mps 708 mmHg 34%
    19:00 +34°C° 0 mm 3 mps 708 mmHg 37%
    20:00 +31°C° 0 mm 3 mps 709 mmHg 40%
    21:00 +31°C° 0 mm 3 mps 709 mmHg 43%
    22:00 +30°C° 0 mm 2 mps 710 mmHg 45%
    23:00 +29°C° 0 mm 2 mps 710 mmHg 48%

    20 December, Thursday

    Time Temperature Precipitation Wind Pressure Humidity
    00:00 +28°C° 0 mm 2 mps 710 mmHg 52%
    01:00 +28°C° 0 mm 2 mps 711 mmHg 56%
    02:00 +27°C° 0 mm 2 mps 711 mmHg 60%
    03:00 +26°C° 1.6 mm 3 mps 712 mmHg 61%
    04:00 +26°C° 1.6 mm 3 mps 713 mmHg 63%
    05:00 +25°C° 1.6 mm 4 mps 713 mmHg 65%
    06:00 +26°C° 0.7 mm 4 mps 714 mmHg 59%
    07:00 +27°C° 0.7 mm 4 mps 715 mmHg 53%
    08:00 +28°C° 0.7 mm 3 mps 716 mmHg 47%
    09:00 +30°C° 0.1 mm 4 mps 716 mmHg 42%
    10:00 +32°C° 0.1 mm 4 mps 716 mmHg 37%
    11:00 +33°C° 0.1 mm 4 mps 716 mmHg 32%
    12:00 +34°C° 0.1 mm 4 mps 715 mmHg 30%
    13:00 +35°C° 0.1 mm 3 mps 714 mmHg 28%
    14:00 +35°C° 0.1 mm 3 mps 713 mmHg 26%
    15:00 +35°C° 0 mm 3 mps 713 mmHg 25%
    16:00 +35°C° 0 mm 3 mps 712 mmHg 24%
    17:00 +35°C° 0 mm 3 mps 712 mmHg 24%
    18:00 +34°C° 0 mm 3 mps 712 mmHg 26%
    19:00 +32°C° 0 mm 2 mps 712 mmHg 29%
    20:00 +31°C° 0 mm 2 mps 713 mmHg 31%
    21:00 +30°C° 0 mm 3 mps 714 mmHg 34%
    22:00 +29°C° 0 mm 3 mps 714 mmHg 36%
    23:00 +28°C° 0 mm 3 mps 715 mmHg 39%
    Show more